Weather History for Malaga, Spain

Change the Weather History Date:

Friday, May 10, 2013

  Actual Average Record
Temperature  
Mean Temperature 78 °F -  
Max Temperature 88 °F 76 °F 89 °F (2005)
Min Temperature 69 °F 58 °F 50 °F (2000)
Cooling Degree Days 14    
Growing Degree Days 28 (Base 50)    
Moisture  
Dew Point 47 °F    
Average Humidity 36    
Maximum Humidity 60    
Minimum Humidity 13    
Precipitation  
Precipitation 0.00 in 0.03 in - ()
Sea Level Pressure  
Sea Level Pressure 30.01 in    
Wind  
Wind Speed 10 mph ()    
Max Wind Speed 16 mph    
Max Gust Speed -    
Visibility 19.0 miles    
Events      
Averages and records for this station are not official NWS values.
T = Trace of Precipitation, MM = Missing Value Source: Averaged Metar Reports

Daily Weather History Graph

Daily Weather History Graph

Search for Another Location

Airport:

Trip Planner

Search our weather history database for the weather conditions in past years. The results will help you decide how hot, cold, wet, or windy it might be!

Date:

Astronomy

May. 10, 2013 Rise Set
Actual Time 7:14 AM CEST 9:14 PM CEST
Civil Twilight 6:46 AM CEST 9:42 PM CEST
Nautical Twilight 6:11 AM CEST 10:17 PM CEST
Astronomical Twilight 5:34 AM CEST 10:54 PM CEST
Moon 7:29 AM CEST (5/10) 9:50 PM CEST (5/10)
Length of Visible Light 14h 56m
Length of Day
13h 59m
New Moon, 0% of the Moon is Illuminated
May 10
New Moon
May 18
First Quarter
May 25
Full
May 31
Last Quarter
Jun 8
New

Hourly Weather History & Observations

Time (CEST) Temp. Dew Point Humidity Pressure Visibility Wind Dir Wind Speed Gust Speed Precip Events Conditions
12:00 AM 77.0 °F 44.6 °F 32% 30.01 in - WNW 9.2 mph - N/A   Clear
12:30 AM 77.0 °F 44.6 °F 32% 30.01 in - WNW 12.7 mph - N/A   Clear
1:00 AM 77.0 °F 41.0 °F 28% 29.98 in - WNW 11.5 mph - N/A   Clear
1:30 AM 77.0 °F 39.2 °F 26% 30.01 in - WNW 12.7 mph - N/A   Clear
2:00 AM 79 °F 38 °F 13% 30.01 in 19 mi WNW 12.7 mph - -   Clear
2:00 AM 77.0 °F 39.2 °F 26% 30.01 in - WNW 12.7 mph - N/A   Clear
2:30 AM 77.0 °F 37.4 °F 24% 29.98 in - West 13.8 mph - N/A   Clear
3:00 AM 75.2 °F 35.6 °F 24% 29.98 in - WNW 15.0 mph - N/A   Clear
3:30 AM 75.2 °F 35.6 °F 24% 29.98 in - West 13.8 mph - N/A   Clear
4:00 AM 75.2 °F 35.6 °F 24% 29.98 in - West 13.8 mph - N/A   Clear
4:30 AM 75.2 °F 35.6 °F 24% 29.98 in - WNW 12.7 mph - N/A   Clear
5:00 AM 75.2 °F 35.6 °F 24% 29.98 in - West 13.8 mph - N/A   Clear
5:30 AM 73.4 °F 37.4 °F 27% 29.98 in - West 11.5 mph - N/A   Clear
6:00 AM 73.4 °F 37.4 °F 27% 29.98 in - West 12.7 mph - N/A   Clear
6:30 AM 73.4 °F 39.2 °F 29% 29.98 in - West 15.0 mph - N/A   Clear
7:00 AM 73.4 °F 41.0 °F 31% 29.98 in - West 13.8 mph - N/A   Clear
7:30 AM 73.4 °F 41.0 °F 31% 29.98 in - West 15.0 mph - N/A   Clear
8:00 AM 75 °F 44 °F 22% 30.00 in 25 mi West 13.8 mph - -   Scattered Clouds
8:00 AM 73.4 °F 42.8 °F 33% 29.98 in - West 13.8 mph - N/A   Clear
8:30 AM 75.2 °F 42.8 °F 31% 30.01 in - West 15.0 mph - N/A   Clear
9:00 AM 75.2 °F 44.6 °F 34% 30.01 in - West 13.8 mph - N/A   Clear
9:30 AM 77.0 °F 44.6 °F 32% 30.01 in - West 15.0 mph - N/A   Clear
10:00 AM 77.0 °F 42.8 °F 29% 30.01 in - West 16.1 mph - N/A   Clear
10:30 AM 78.8 °F 44.6 °F 30% 30.01 in - West 15.0 mph - N/A   Clear
11:00 AM 80.6 °F 44.6 °F 28% 30.01 in - West 13.8 mph - N/A   Clear
12:00 PM 84.2 °F 46.4 °F 27% 30.04 in - West 12.7 mph - N/A   Clear
12:30 PM 86.0 °F 48.2 °F 27% 30.04 in - West 10.4 mph - N/A   Clear
1:00 PM 86.0 °F 46.4 °F 25% 30.01 in - WNW 10.4 mph - N/A   Clear
1:30 PM 86.0 °F 46.4 °F 25% 30.01 in - WNW 10.4 mph - N/A   Clear
2:00 PM 88 °F 44 °F 13% 30.03 in 22 mi WNW 8.1 mph - -   Scattered Clouds
2:00 PM 86.0 °F 44.6 °F 23% 30.01 in - WNW 8.1 mph - N/A   Clear
2:30 PM 77.0 °F 53.6 °F 44% 30.04 in - East 10.4 mph - N/A   Clear
3:00 PM 77.0 °F 51.8 °F 41% 30.04 in - ESE 6.9 mph - N/A   Clear
3:30 PM 77.0 °F 55.4 °F 47% 30.04 in - East 5.8 mph - N/A   Clear
4:00 PM 77.0 °F 53.6 °F 44% 30.04 in - SE 4.6 mph - N/A   Clear
4:30 PM 78.8 °F 51.8 °F 39% 30.04 in - SE 5.8 mph - N/A   Clear
5:00 PM 77.0 °F 51.8 °F 41% 30.04 in - SE 6.9 mph - N/A   Clear
5:30 PM 77.0 °F 53.6 °F 44% 30.01 in - SE 6.9 mph - N/A   Clear
6:00 PM 75.2 °F 53.6 °F 47% 30.01 in - ESE 5.8 mph - N/A   Clear
6:30 PM 75.2 °F 55.4 °F 50% 30.01 in - ESE 8.1 mph - N/A   Clear
7:00 PM 75.2 °F 55.4 °F 50% 30.01 in - ESE 4.6 mph - N/A   Clear
7:30 PM 73.4 °F 55.4 °F 53% 30.01 in - Variable 2.3 mph - N/A   Clear
8:00 PM 76 °F 56 °F 39% 30.01 in 19 mi 2.3 mph - -   Scattered Clouds
8:00 PM 75.2 °F 55.4 °F 50% 30.01 in - Variable 2.3 mph - N/A   Clear
8:30 PM 73.4 °F 53.6 °F 50% 30.01 in - ESE 3.5 mph - N/A   Clear
9:00 PM 73.4 °F 55.4 °F 53% 30.01 in - SSE 1.2 mph - N/A   Clear
9:30 PM 71.6 °F 55.4 °F 57% 30.01 in - ESE 1.2 mph - N/A   Clear
10:00 PM 71.6 °F 55.4 °F 57% 30.04 in - ESE 1.2 mph - N/A   Clear
10:30 PM 69.8 °F 55.4 °F 60% 30.04 in - ESE 1.2 mph - N/A   Clear
11:00 PM 69.8 °F 55.4 °F 60% 30.04 in - ESE 2.3 mph - N/A   Clear
11:30 PM 69.8 °F 55.4 °F 60% 30.06 in - East 3.5 mph - N/A   Clear